Regional Weather Roundup
Issued by NWS

Home | Current Version | Previous Version | Text Only | Print | Product List | Glossary On
Versions: 1 2 3 4 5 6 7 8 9 10 11 12 13 14 15 16 17 18 19 20 21 22 23 24 25 26 27 28 29 30 31 32 33 34 35 36 37 38 39 40 41 42 43 44 45 46 47 48 49 50
612
ASUS43 KBIS 181410
RWRND

NORTH DAKOTA REGIONAL WEATHER ROUNDUP
NATIONAL WEATHER SERVICE BISMARCK ND
800 AM CST WED JAN 18 2017

NOTE: "FAIR" INDICATES FEW OR NO CLOUDS BELOW 12,000 FEET WITH NO
SIGNIFICANT WEATHER AND/OR OBSTRUCTIONS TO VISIBILITY.


NDZ001>003-009>011-017-181500-
NORTHWEST NORTH DAKOTA

CITY           SKY/WX    TMP DP  RH WIND       PRES   REMARKS
WILLISTON      FAIR      24  20  84 SW3       29.67F
MINOT          FAIR      34  26  72 SW12      29.66S
MINOT AFB      CLOUDY    33  27  79 SW7       29.64S
$$

NDZ018>021-031>035-040>046-181500-
SOUTHWEST NORTH DAKOTA

CITY           SKY/WX    TMP DP  RH WIND       PRES   REMARKS
BISMARCK       FAIR      18  12  77 NE8       29.76S WCI   8
DICKINSON      FAIR      33  21  61 SW9       29.70R
GARRISON         N/A     25  20  81 E5        29.71R WCI  19
HETTINGER ARPT CLEAR     25  17  72 CALM      29.77S
$$

NDZ004>008-012>016-024-026-027-054-181500-
NORTHEAST NORTH DAKOTA

CITY           SKY/WX    TMP DP  RH WIND       PRES   REMARKS
GRAND FORKS    CLOUDY    22  16  78 S10       29.71R WCI  11
GRND FRKS AFB  CLOUDY    23  18  81 S8        29.70R WCI  13
DEVILS LAKE    FAIR      26  22  84 SW13      29.68S WCI  15
$$

NDZ022-023-025-028>030-036>039-047>053-181500-
SOUTHEAST NORTH DAKOTA

CITY           SKY/WX    TMP DP  RH WIND       PRES   REMARKS
FARGO          CLOUDY    20  16  84 S9        29.78R WCI   9
JAMESTOWN      FAIR      29  21  72 W9        29.72F
$$





USA.gov is the U.S. government's official web portal to all federal, state and local government web resources and services.